Location: McFarlands Corners
(41.4117°N, 81.3382°W)
Time: 10:15:42
(UTC+00:00)

Vanguard 1 Rocket - Pass Details

Date: 24 February 2026
Orbit: 653 x 4214 km, 34.3° (Epoch: 8 March)

Event Time Altitude Azimuth Distance (km) Brightness Sun altitude
Rises 23:38:19 0° 277° (W) 5,826 13.5 -6.0°
Reaches altitude 10° 23:42:11 10° 268° (W) 5,268 13.1 -6.7°
Maximum altitude 23:56:05 32° 213° (SSW) 4,940 11.5 -9.3°
Drops below altitude 10° 00:15:56 10° 161° (SSE) 7,391 11.8 -13.1°
Sets 00:23:03 0° 153° (SSE) 8,421 12.0 -14.4°
